Location: Anaheim
(33.8350°N, 117.9140°W)
Time: 12:16:58
(UTC-07:00)

Amateur Radio Satellites - All Passes

Search period start: 04 May 2016 11:46
Search period end: 05 May 2016 11:46
Location: Anaheim, 33.8350°N, 117.9140°W

Satellite Date Start Highest point End Downlink Frequencies (MHz)
Time Altitude Azimuth
DX 1 04 May 11:48:56 11:52:26 23° 96° (E) 11:55:54 434.975-435.025
UKube-1 04 May 11:52:16 11:55:29 20° 96° (E) 11:58:39 .
50 SAT 04 May 11:56:05 11:59:29 36° 99° (E) 12:02:53 437.505
VELOX 1 04 May 11:57:52 12:01:56 34° 98° (E) 12:05:58 145.980
Cosmos 2499 04 May 12:07:17 12:14:58 53° 80° (E) 12:23:11 435.465 / 435.565
AO-85 04 May 12:13:35 12:19:01 85° 118° (ESE) 12:24:30 145.980
SPROUT 04 May 12:18:44 12:21:56 20° 95° (E) 12:25:07 437.525
HUMSAT D 04 May 12:23:03 12:24:48 12° 293° (WNW) 12:26:32 437.325/437.525
AISAT 04 May 12:29:55 12:34:24 89° 91° (E) 12:38:51 437.250
DUCHIFAT 1 04 May 12:35:35 12:38:47 21° 264° (W) 12:42:01 145.980
QB50P2 04 May 12:39:08 12:41:51 16° 266° (W) 12:44:35 145.880/145.840
POLYITAN 1 04 May 12:41:22 12:44:02 16° 266° (W) 12:46:44 437.675
POPSAT HIP 1 04 May 12:43:33 12:46:09 16° 266° (W) 12:48:45 437.405
AIST 1 04 May 12:46:26 12:49:14 17° 273° (W) 12:52:03
QB50P1 04 May 12:46:56 12:49:14 14° 267° (W) 12:51:31 145.935-145.965
TISAT 1 04 May 12:47:44 12:48:53 11° 93° (E) 12:50:03 437.305
ESTCUBE 1 04 May 12:56:24 13:00:28 33° 288° (WNW) 13:04:32 437.505/2401.250
PHONESAT 2.4 04 May 12:56:55 12:59:45 30° 12° (NNE) 13:02:35 2401.200-2431.200
CUBEBUG 1 04 May 13:01:48 13:05:58 40° 287° (WNW) 13:10:04 437.445
ISS 04 May 13:01:58 13:04:27 20° 33° (NNE) 13:06:55 145.825
BUGSAT 1 04 May 13:10:03 13:12:53 17° 266° (W) 13:15:45 437.445
JAS-2 04 May 13:10:57 13:16:48 81° 75° (ENE) 13:23:31 435.910
Oscar 19 04 May 13:13:13 13:18:13 52° 73° (ENE) 13:23:14 437.125/150
GONETS M04 04 May 13:20:08 13:27:21 30° 275° (W) 13:34:33
Gurwin Techsat 1B 04 May 13:23:34 13:27:53 26° 68° (ENE) 13:32:12 435.225
DX 1 04 May 13:24:55 13:28:31 25° 290° (WNW) 13:32:05 434.975-435.025
UKube-1 04 May 13:27:46 13:31:29 28° 289° (WNW) 13:35:10 .
50 SAT 04 May 13:31:50 13:32:54 11° 292° (WNW) 13:33:58 437.505
O/OREOS (USA 219) 04 May 13:34:10 13:37:23 19° 101° (E) 13:40:38 437.305
VELOX 1 04 May 13:35:05 13:38:06 18° 292° (WNW) 13:41:07 145.980
SPROUT 04 May 13:54:14 13:57:50 27° 289° (WNW) 14:01:24 437.525
AO-85 04 May 13:57:16 14:00:10 14° 314° (NW) 14:03:04 145.980
Cosmos 2499 04 May 14:01:18 14:07:38 27° 274° (W) 14:14:18 435.465 / 435.565
AO-7 04 May 14:03:44 14:08:51 18° 55° (NE) 14:13:58 29.400- 29.500
BEESAT 04 May 14:14:25 14:17:59 21° 95° (E) 14:21:31 436.000
TISAT 1 04 May 14:20:43 14:24:46 46° 286° (WNW) 14:28:46 437.305
PHONESAT 2.4 04 May 14:33:38 14:36:45 67° 209° (SSW) 14:39:53 2401.200-2431.200
ITAMSAT 1 04 May 14:35:56 14:40:57 53° 73° (ENE) 14:45:59 435.822/435.867
ISS 04 May 14:37:58 14:40:58 33° 229° (SW) 14:43:56 145.825
Oscar 19 04 May 14:54:53 14:57:46 15° 267° (W) 15:00:41 437.125/150
JAS-2 04 May 15:00:54 15:02:48 11° 273° (W) 15:04:46 435.910
Gurwin Techsat 1B 04 May 15:02:54 15:07:38 33° 262° (W) 15:12:23 435.225
PCSat 04 May 15:04:54 15:10:16 70° 113° (ESE) 15:15:40 145.827
ITUPSAT 1 04 May 15:09:44 15:14:32 85° 105° (ESE) 15:19:19 437.325
O/OREOS (USA 219) 04 May 15:12:23 15:16:31 32° 295° (WNW) 15:20:40 437.305
CUSAT 1 04 May 15:15:14 15:18:32 78° 280° (W) 15:22:54 437.405
SWISSCUBE 04 May 15:18:09 15:22:53 68° 285° (WNW) 15:27:36 437.505
SO-50 04 May 15:28:15 15:32:28 32° 54° (NE) 15:36:34 436.795
KKS-1 04 May 15:47:20 15:50:56 24° 96° (E) 15:54:31 437.445
BEESAT 04 May 15:51:32 15:55:46 33° 289° (WNW) 15:59:59 436.000
AO-7 04 May 15:52:15 16:00:33 88° 256° (WSW) 16:08:53 29.400- 29.500
STARS 04 May 15:59:20 16:02:01 16° 94° (E) 16:04:40 437.465
MOZHAYETS 4 04 May 16:04:43 16:08:28 25° 96° (E) 16:12:12
HORYU 2 04 May 16:08:40 16:12:26 27° 71° (ENE) 16:16:13 437.375
DANDE 04 May 16:17:06 16:19:37 28° 285° (WNW) 16:22:39 436.750
ITAMSAT 1 04 May 16:17:54 16:20:41 15° 267° (W) 16:23:28 435.822/435.867
Cosmos 2491 04 May 16:33:21 16:39:08 19° 68° (ENE) 16:44:52 435.465 / 435.565
JUGNU 04 May 16:33:41 16:36:37 14° 167° (SSE) 16:39:34 437.505
PCSat 04 May 16:51:05 16:54:11 15° 310° (NW) 16:57:17 145.827
NOAA 18 04 May 16:51:37 16:54:22 14° 63° (ENE) 16:57:07 137.9125
NOAA 15 04 May 16:56:37 16:59:53 17° 65° (ENE) 17:03:09 137.62
Cubesat XI-IV 04 May 17:06:51 17:09:21 13° 64° (ENE) 17:11:51 437.490
SO-50 04 May 17:09:10 17:12:43 22° 250° (WSW) 17:16:11 436.795
BRITE-PL 04 May 17:14:04 17:16:24 13° 64° (ENE) 17:18:48 437.365/2234.400
KKS-1 04 May 17:23:45 17:27:23 25° 290° (WNW) 17:31:00 437.445
STARS 04 May 17:34:26 17:38:28 36° 288° (WNW) 17:42:27 437.465
MOZHAYETS 4 04 May 17:41:47 17:45:31 25° 290° (WNW) 17:49:15
HORYU 2 04 May 17:45:28 17:48:55 22° 264° (W) 17:52:23 437.375
AO-7 04 May 17:50:22 17:54:09 14° 268° (W) 17:57:59 29.400- 29.500
CUBESAT XI-V 04 May 17:54:52 17:59:20 42° 99° (E) 18:03:48 437.345
BEESAT 3 04 May 17:55:40 17:59:36 87° 304° (WNW) 18:03:34 437.485
CUTE-I 04 May 17:58:43 18:03:45 45° 72° (ENE) 18:08:47 437.470
BEESAT 2 04 May 18:07:02 18:10:58 69° 117° (ESE) 18:14:56 435.950
GOMX 1 04 May 18:12:57 18:17:09 27° 69° (ENE) 18:21:34 467.674
LilacSat-2 04 May 18:13:52 18:17:39 52° 75° (ENE) 18:21:26 437.200
JUGNU 04 May 18:20:45 18:24:56 20° 177° (S) 18:29:08 437.505
Cosmos 2491 04 May 18:28:03 18:36:51 78° 266° (W) 18:45:34 435.465 / 435.565
NOAA 18 04 May 18:28:54 18:34:24 68° 258° (WSW) 18:39:53 137.9125
M-CUBED/EXP-1 PRIME 04 May 18:32:09 18:36:35 42° 69° (ENE) 18:40:59 437.505
YUBILEINY 04 May 18:33:26 18:41:57 59° 91° (E) 18:50:27 435.215
NOAA 15 04 May 18:34:04 18:39:10 52° 260° (W) 18:44:20 137.62
Cubesat XI-IV 04 May 18:43:30 18:48:48 66° 258° (WSW) 18:54:06 437.490
AUBIESAT-1 04 May 18:48:51 18:53:22 52° 70° (ENE) 18:57:49 437.475
BRITE-PL 04 May 18:49:29 18:54:10 60° 260° (W) 18:59:18 437.365/2234.400
Cosmos 2504 04 May 18:52:29 18:55:35 13° 81° (E) 18:58:40 435.465 / 435.565
SRMSAT 04 May 19:24:37 19:28:26 17° 171° (S) 19:32:16 437.500
CANX-2 04 May 19:24:59 19:28:06 20° 70° (ENE) 19:31:13 2200.000
CUBESAT XI-V 04 May 19:33:27 19:36:20 16° 292° (WNW) 19:39:13 437.345
DOVE 4 04 May 19:34:52 19:39:57 88° 256° (WSW) 19:45:16 437.250
RS-15 04 May 19:38:35 19:46:13 21° 100° (E) 19:54:02 29.354- 29.394
CUTE-I 04 May 19:40:19 19:43:57 18° 266° (W) 19:47:34 437.470
HO-68 04 May 19:50:03 19:57:01 57° 70° (ENE) 20:03:59 435.675
GOMX 1 04 May 19:50:44 19:55:03 30° 265° (W) 19:59:39 467.674
AIST 2 04 May 19:56:20 20:00:25 70° 117° (ESE) 20:04:33 435.215
CUTE 1.7 + AOD 2 04 May 19:56:23 20:00:20 42° 74° (ENE) 20:04:19 437.475
PRISM 04 May 20:00:40 20:01:06 10° 93° (E) 20:01:33 437.425
CINEMA 3 04 May 20:02:31 20:07:25 57° 75° (ENE) 20:12:21 145.822/145.860
STRAND 1 04 May 20:04:17 20:09:25 79° 102° (ESE) 20:14:32 437.568
M-CUBED/EXP-1 PRIME 04 May 20:08:04 20:11:11 17° 261° (W) 20:14:17 437.505
JUGNU 04 May 20:09:18 20:13:17 19° 187° (S) 20:17:17 437.505
COMPASS 1 04 May 20:19:02 20:22:52 39° 73° (ENE) 20:26:43 437.405
SEEDS 04 May 20:19:29 20:23:34 58° 76° (ENE) 20:27:40 437.485
UWE-3 04 May 20:24:16 20:27:40 21° 70° (ENE) 20:31:01 435.000/436.395/437.385
AUBIESAT-1 04 May 20:25:45 20:27:59 13° 262° (W) 20:30:13 437.475
Cosmos 2491 04 May 20:30:02 20:32:06 11° 283° (WNW) 20:34:09 435.465 / 435.565
YUBILEINY 04 May 20:32:18 20:39:10 25° 288° (WNW) 20:46:04 435.215
CUBEBUG 2 04 May 20:35:18 20:39:44 40° 73° (ENE) 20:44:05 437.445
Cosmos 2504 04 May 20:40:40 20:47:59 79° 276° (W) 20:55:10 435.465 / 435.565
AAUSAT CUBESAT 2 04 May 20:47:21 20:51:26 72° 77° (ENE) 20:55:32 437.432
ZACube-1 04 May 20:49:30 20:53:13 25° 71° (ENE) 20:56:53 437.345
AO-85 04 May 20:50:34 20:54:26 25° 52° (NE) 20:58:02 145.980
CANX-2 04 May 21:00:15 21:03:47 26° 264° (W) 21:07:19 2200.000
SRMSAT 04 May 21:12:36 21:16:58 21° 181° (S) 21:21:19 437.500
Oscar 11 04 May 21:26:29 21:30:47 81° 78° (ENE) 21:35:07 145.826/435.025
PRISM 04 May 21:32:36 21:36:39 50° 285° (WNW) 21:40:41 437.425
HUMSAT D 04 May 21:34:01 21:36:54 18° 70° (ENE) 21:39:46 437.325/437.525
CUTE 1.7 + AOD 2 04 May 21:34:38 21:36:20 12° 267° (W) 21:38:03 437.475
AIST 2 04 May 21:38:37 21:39:22 10° 313° (NW) 21:40:06 435.215
HO-68 04 May 21:39:38 21:45:00 23° 265° (W) 21:50:23 435.675
FUNcube-1 04 May 21:41:10 21:45:42 84° 256° (WSW) 21:50:10 145.935
CINEMA 3 04 May 21:42:31 21:44:49 13° 268° (W) 21:47:08 145.822/145.860
DELFI C3 04 May 21:42:31 21:46:22 55° 75° (ENE) 21:50:13 145.870
RS-15 04 May 21:45:49 21:57:02 83° 299° (WNW) 22:08:57 29.354- 29.394
STRAND 1 04 May 21:46:57 21:47:52 10° 297° (WNW) 21:48:47 437.568
COMPASS 1 04 May 21:56:43 21:58:33 13° 267° (W) 22:00:24 437.405
UWE-3 04 May 21:59:44 22:03:53 32° 263° (W) 22:07:58 435.000/436.395/437.385
JUGNU 04 May 22:00:05 22:01:36 11° 196° (SSW) 22:03:06 437.505
CUBEBUG 2 04 May 22:13:24 22:16:25 17° 266° (W) 22:19:26 437.445
ESTCUBE 1 04 May 22:18:23 22:19:36 11° 65° (ENE) 22:20:49 437.505/2401.250
ZACube-1 04 May 22:25:42 22:29:23 24° 264° (W) 22:33:01 437.345
AO-85 04 May 22:31:01 22:34:50 27° 250° (WSW) 22:38:23 145.980
UNISAT 6 04 May 22:41:17 22:45:08 32° 98° (E) 22:48:55 437.425
DX 1 04 May 22:42:13 22:44:12 13° 66° (ENE) 22:46:11 434.975-435.025
UKube-1 04 May 22:45:15 22:46:23 11° 65° (ENE) 22:47:31 .
VELOX 1 04 May 22:52:07 22:55:16 19° 68° (ENE) 22:58:27 145.980
TIGRISAT 04 May 22:57:45 23:01:54 48° 99° (E) 23:05:59 435.000
SRMSAT 04 May 23:01:52 23:05:28 16° 191° (S) 23:09:05 437.500
HUMSAT D 04 May 23:08:36 23:12:18 29° 263° (W) 23:15:59 437.325/437.525
SPROUT 04 May 23:11:19 23:11:52 10° 65° (ENE) 23:12:24 437.525
ANTELSAT 04 May 23:23:06 23:27:23 76° 284° (WNW) 23:31:38 437.575/2403.000
AISAT 04 May 23:23:17 23:27:31 47° 74° (ENE) 23:31:49 437.250
NANOSAT C BR1 04 May 23:32:02 23:35:10 20° 95° (E) 23:38:17 145.865
AIST 1 04 May 23:33:42 23:37:01 22° 89° (E) 23:40:22
O/OREOS (USA 219) 04 May 23:47:29 23:50:48 20° 62° (ENE) 23:54:05 437.305
ESTCUBE 1 04 May 23:51:27 23:55:51 58° 259° (W) 00:00:17 437.505/2401.250
CUBEBUG 1 04 May 23:53:15 23:57:36 82° 256° (WSW) 00:02:02 437.445
PCSat 04 May 23:57:16 00:01:44 25° 55° (NE) 00:06:10 145.827
RS-15 05 May 00:02:49 00:11:35 24° 324° (NW) 00:20:45 29.354- 29.394
50 SAT 05 May 00:04:17 00:07:44 40° 261° (W) 00:11:11 437.505
DX 1 05 May 00:15:45 00:19:56 47° 260° (W) 00:24:09 434.975-435.025
UKube-1 05 May 00:17:41 00:21:54 55° 259° (W) 00:26:10 .
GONETS M04 05 May 00:18:03 00:26:45 65° 92° (E) 00:35:27
UNISAT 6 05 May 00:18:46 00:21:34 17° 292° (WNW) 00:24:21 437.425
DUCHIFAT 1 05 May 00:22:24 00:26:37 83° 104° (ESE) 00:30:47 145.980
JAS-2 05 May 00:25:54 00:30:46 17° 90° (E) 00:35:31 435.910
QB50P2 05 May 00:26:10 00:30:24 74° 285° (WNW) 00:34:35 145.880/145.840
VELOX 1 05 May 00:27:34 00:31:29 31° 262° (W) 00:35:27 145.980
POLYITAN 1 05 May 00:28:23 00:32:36 73° 283° (WNW) 00:36:45 437.675
POPSAT HIP 1 05 May 00:30:19 00:34:32 71° 284° (WNW) 00:38:42 437.405
QB50P1 05 May 00:33:20 00:37:31 64° 284° (WNW) 00:41:40 145.935-145.965
TIGRISAT 05 May 00:36:35 00:38:07 12° 294° (WNW) 00:39:39 435.000
Cosmos 2499 05 May 00:40:15 00:46:52 44° 90° (E) 00:53:29 435.465 / 435.565
SPROUT 05 May 00:43:02 00:47:16 58° 259° (W) 00:51:33 437.525
BUGSAT 1 05 May 00:54:13 00:58:25 88° 272° (W) 01:02:31 437.445
AISAT 05 May 01:02:20 01:04:13 12° 267° (W) 01:06:06 437.250
NANOSAT C BR1 05 May 01:07:21 01:10:50 26° 289° (WNW) 01:14:20 145.865
TISAT 1 05 May 01:07:56 01:12:09 73° 76° (ENE) 01:16:25 437.305
AIST 1 05 May 01:11:02 01:14:27 23° 283° (WNW) 01:17:55
DANDE 05 May 01:14:24 01:18:50 17° 72° (ENE) 01:23:37 436.750
BEESAT 05 May 01:17:54 01:20:47 16° 67° (ENE) 01:23:41 436.000
O/OREOS (USA 219) 05 May 01:26:15 01:30:13 31° 257° (WSW) 01:34:08 437.305
Oscar 19 05 May 01:29:16 01:33:31 25° 96° (E) 01:37:44 437.125/150
PCSat 05 May 01:40:12 01:45:11 38° 251° (WSW) 01:50:07 145.827
Gurwin Techsat 1B 05 May 01:44:53 01:47:23 13° 92° (E) 01:49:53 435.225
CUSAT 1 05 May 01:50:16 01:57:51 62° 80° (E) 02:05:49 437.405
JAS-2 05 May 02:08:28 02:16:22 81° 285° (WNW) 02:24:02 435.910
ITUPSAT 1 05 May 02:12:29 02:17:10 63° 74° (ENE) 02:21:53 437.325
GONETS M04 05 May 02:17:26 02:24:07 24° 289° (WNW) 02:30:50
BEESAT 3 05 May 02:17:37 02:20:11 16° 52° (NE) 02:22:43 437.485
SWISSCUBE 05 May 02:20:28 02:25:13 88° 83° (E) 02:30:00 437.505
RS-15 05 May 02:27:02 02:30:53 12° 1° (N) 02:34:45 29.354- 29.394
BEESAT 2 05 May 02:30:12 02:32:13 13° 50° (NE) 02:34:13 435.950
Cosmos 2499 05 May 02:34:25 02:40:06 26° 286° (WNW) 02:45:49 435.465 / 435.565
KKS-1 05 May 02:42:44 02:45:12 15° 67° (ENE) 02:47:41 437.445
ITAMSAT 1 05 May 02:53:11 02:57:29 26° 97° (E) 03:01:46 435.822/435.867
BEESAT 05 May 02:53:40 02:58:11 44° 260° (W) 03:02:44 436.000
DANDE 05 May 02:54:50 03:02:03 86° 262° (W) 03:10:25 436.750
MOZHAYETS 4 05 May 03:03:52 03:06:35 16° 68° (ENE) 03:09:17
Oscar 19 05 May 03:08:14 03:12:48 32° 290° (WNW) 03:17:19 437.125/150
Gurwin Techsat 1B 05 May 03:22:26 03:27:40 60° 286° (WNW) 03:32:53 435.225
CUSAT 1 05 May 03:33:31 03:39:29 25° 273° (W) 03:45:39 437.405
BEESAT 3 05 May 03:54:22 03:57:58 34° 247° (WSW) 04:01:32 437.485
ITUPSAT 1 05 May 03:54:39 03:55:21 10° 268° (W) 03:56:02 437.325
JAS-2 05 May 03:56:08 04:00:08 15° 301° (WNW) 04:04:07 435.910
AO-7 05 May 03:58:35 04:06:18 41° 100° (E) 04:14:00 29.400- 29.500
BEESAT 2 05 May 04:06:29 04:10:18 46° 245° (WSW) 04:14:04 435.950
KKS-1 05 May 04:17:06 04:21:22 43° 261° (W) 04:25:39 437.445
AIST 2 05 May 04:22:29 04:24:58 15° 50° (NE) 04:27:26 435.215
STARS 05 May 04:26:29 04:30:54 69° 259° (WSW) 04:35:20 437.465
ITAMSAT 1 05 May 04:32:22 04:36:53 31° 290° (WNW) 04:41:23 435.822/435.867
MOZHAYETS 4 05 May 04:39:04 04:43:23 41° 262° (W) 04:47:41
DANDE 05 May 04:40:38 04:44:16 14° 274° (W) 04:48:07 436.750
RS-15 05 May 04:40:41 04:50:12 25° 37° (NE) 04:59:43 29.354- 29.394
YUBILEINY 05 May 04:49:30 04:56:06 23° 71° (ENE) 05:02:38 435.215
CUBESAT XI-V 05 May 04:54:44 04:58:32 26° 70° (ENE) 05:02:22 437.345
Cosmos 2491 05 May 05:29:44 05:36:25 25° 83° (E) 05:43:06 435.465 / 435.565
ISS 05 May 05:38:20 05:41:25 42° 133° (SE) 05:44:32 145.825
SO-50 05 May 05:38:39 05:42:43 27° 111° (ESE) 05:46:48 436.795
HORYU 2 05 May 05:39:02 05:43:27 86° 285° (WNW) 05:47:52 437.375
AO-7 05 May 05:51:23 05:58:55 40° 296° (WNW) 06:06:29 29.400- 29.500
AIST 2 05 May 05:59:43 06:03:38 42° 246° (WSW) 06:07:32 435.215
CUTE-I 05 May 06:20:10 06:24:28 24° 96° (E) 06:28:44 437.470
GOMX 1 05 May 06:21:09 06:22:43 11° 89° (E) 06:24:16 467.674
CUBESAT XI-V 05 May 06:32:07 06:35:49 24° 264° (W) 06:39:34 437.345
Cosmos 2504 05 May 06:37:01 06:43:38 29° 75° (ENE) 06:50:34 435.465 / 435.565
YUBILEINY 05 May 06:44:52 06:53:25 64° 268° (W) 07:02:00 435.215
RS-15 05 May 06:52:26 07:04:51 82° 62° (ENE) 07:17:06 29.354- 29.394
NOAA 15 05 May 06:52:57 06:58:17 83° 103° (ESE) 07:03:36 137.62
NOAA 18 05 May 06:54:55 07:00:23 73° 103° (ESE) 07:05:48 137.9125
BRITE-PL 05 May 06:57:52 07:03:33 66° 100° (E) 07:08:58 437.365/2234.400
Cubesat XI-IV 05 May 07:04:39 07:09:58 69° 102° (ESE) 07:15:16 437.490
PHONESAT 2.4 05 May 07:07:06 07:08:07 11° 141° (SE) 07:09:08 2401.200-2431.200
ISS 05 May 07:15:47 07:18:01 17° 328° (NNW) 07:20:17 145.825
STRAND 1 05 May 07:16:11 07:21:16 75° 75° (ENE) 07:26:22 437.568
SO-50 05 May 07:18:43 07:23:04 31° 306° (NW) 07:27:26 436.795
Cosmos 2491 05 May 07:23:51 07:32:31 60° 279° (W) 07:41:15 435.465 / 435.565
LilacSat-2 05 May 07:25:16 07:28:59 55° 284° (WNW) 07:32:40 437.200
HO-68 05 May 07:26:04 07:27:57 11° 91° (E) 07:29:50 435.675
DOVE 4 05 May 07:38:39 07:43:13 35° 96° (E) 07:47:31 437.250
M-CUBED/EXP-1 PRIME 05 May 07:50:33 07:54:12 50° 104° (ESE) 07:57:34 437.505
GOMX 1 05 May 07:55:57 08:01:18 69° 284° (WNW) 08:06:20 467.674
CUTE-I 05 May 07:59:44 08:04:29 34° 290° (WNW) 08:09:14 437.470
CINEMA 3 05 May 08:02:57 08:05:53 17° 93° (E) 08:08:42 145.822/145.860
AUBIESAT-1 05 May 08:06:41 08:10:23 68° 106° (ESE) 08:13:50 437.475
SEEDS 05 May 08:08:58 08:10:55 13° 93° (E) 08:12:52 437.485
PRISM 05 May 08:17:52 08:21:54 65° 75° (ENE) 08:25:57 437.425
Cosmos 2504 05 May 08:29:43 08:37:04 48° 270° (W) 08:44:56 435.465 / 435.565
AAUSAT CUBESAT 2 05 May 08:34:53 08:37:15 15° 94° (E) 08:39:37 437.432
NOAA 15 05 May 08:36:10 08:37:18 11° 298° (WNW) 08:38:25 137.62
NOAA 18 05 May 08:38:02 08:40:21 13° 298° (WNW) 08:42:40 137.9125
BRITE-PL 05 May 08:38:10 08:41:20 15° 296° (WNW) 08:44:26 437.365/2234.400
PHONESAT 2.4 05 May 08:41:27 08:44:35 81° 152° (SSE) 08:47:43 2401.200-2431.200
Cubesat XI-IV 05 May 08:47:07 08:49:23 13° 297° (WNW) 08:51:40 437.490
CANX-2 05 May 08:48:13 08:52:26 69° 101° (E) 08:56:39 2200.000
RS-15 05 May 09:07:04 09:15:55 24° 259° (W) 09:24:44 29.354- 29.394
HO-68 05 May 09:09:15 09:16:26 85° 105° (ESE) 09:23:37 435.675
DOVE 4 05 May 09:16:56 09:20:35 21° 293° (WNW) 09:24:06 437.250
Oscar 11 05 May 09:18:26 09:21:34 19° 95° (E) 09:24:40 145.826/435.025
CUTE 1.7 + AOD 2 05 May 09:20:34 09:24:41 53° 285° (WNW) 09:28:48 437.475
FUNcube-1 05 May 09:33:58 09:37:16 23° 96° (E) 09:40:33 145.935
UNISAT 6 05 May 09:36:42 09:40:03 20° 69° (ENE) 09:43:23 437.425
CINEMA 3 05 May 09:39:02 09:43:06 33° 288° (WNW) 09:47:00 145.822/145.860
COMPASS 1 05 May 09:40:45 09:44:52 61° 284° (WNW) 09:48:59 437.405
SEEDS 05 May 09:42:50 09:46:45 39° 286° (WNW) 09:50:40 437.485
TIGRISAT 05 May 09:52:32 09:56:29 28° 71° (ENE) 10:00:23 435.000
UWE-3 05 May 09:52:58 09:57:10 69° 100° (E) 10:01:17 435.000/436.395/437.385
CUBEBUG 2 05 May 10:06:40 10:10:48 52° 285° (WNW) 10:14:50 437.445
AAUSAT CUBESAT 2 05 May 10:09:03 10:12:48 34° 287° (WNW) 10:16:34 437.432
ZACube-1 05 May 10:17:07 10:21:18 89° 102° (ESE) 10:25:25 437.345
ANTELSAT 05 May 10:17:27 10:22:01 58° 75° (ENE) 10:26:30 437.575/2403.000
PHONESAT 2.4 05 May 10:18:52 10:21:38 28° 349° (N) 10:24:24 2401.200-2431.200
GONETS M04 05 May 10:34:17 10:41:14 26° 72° (ENE) 10:48:05
Cosmos 2499 05 May 10:37:42 10:40:20 12° 67° (ENE) 10:43:01 435.465 / 435.565
Oscar 11 05 May 10:53:58 10:57:39 28° 288° (WNW) 11:01:21 145.826/435.025
HUMSAT D 05 May 10:55:19 10:59:19 55° 100° (E) 11:03:19 437.325/437.525
DELFI C3 05 May 10:58:43 11:02:34 48° 285° (WNW) 11:06:26 145.870
HO-68 05 May 10:59:17 11:03:13 16° 301° (WNW) 11:07:10 435.675
AO-85 05 May 11:00:16 11:04:34 24° 109° (ESE) 11:08:53 145.980
FUNcube-1 05 May 11:10:11 11:13:24 22° 290° (WNW) 11:16:34 145.935
DUCHIFAT 1 05 May 11:10:24 11:14:17 35° 73° (ENE) 11:18:10 145.980
UNISAT 6 05 May 11:12:20 11:16:31 33° 262° (W) 11:20:39 437.425
QB50P2 05 May 11:14:40 11:18:46 47° 74° (ENE) 11:22:54 145.880/145.840
POLYITAN 1 05 May 11:16:51 11:20:58 48° 74° (ENE) 11:25:07 437.675
POPSAT HIP 1 05 May 11:18:38 11:22:46 49° 74° (ENE) 11:26:55 437.405
AISAT 05 May 11:19:25 11:21:12 12° 93° (E) 11:22:59 437.250
AIST 1 05 May 11:20:56 11:25:17 56° 82° (E) 11:29:35
QB50P1 05 May 11:21:31 11:25:41 54° 75° (ENE) 11:29:53 145.935-145.965
TIGRISAT 05 May 11:29:26 11:33:05 23° 264° (W) 11:36:44 435.000
50 SAT 05 May 11:38:13 11:41:01 20° 96° (E) 11:43:48 437.505
